Tracking 29892 objects as of 21-Nov-2024
HD Live streaming from Space Station
objects crossing your sky now

THURAYA 2

Track THURAYA 2 now!
THURAYA 2 is classified as:


NORAD ID: 27825
Int'l Code: 2003-026A
Perigee: 35,782.3 km
Apogee: 35,804.0 km
Inclination: 7.9 °
Period: 1,436.1 minutes
Semi major axis: 42164 km
RCS: 10.0237 m2 (large)
Launch date: June 10, 2003
Source: United Arab Emirates (UAE)
Launch site: SEA LAUNCH (SEAL)

Capacity for 13,750 simultaneous calls; voice, fax, data transmissions from/to mobile telephones; Middle East, North and Central Africa, Europe, Central Asia and the Indian subcontinent.
Your satellite tracking list
Your tracking list is empty




NASA's NSSDC Master Catalog

Two Line Element Set (TLE):
1 27825U 03026A   24324.87513767  .00000125  00000-0  00000-0 0  9992
2 27825   7.9490  33.8677 0002574 242.0631 142.5318  1.00273807 78596
Source of the keplerian elements: AFSPC